Location: Unspecified
(34.1478°N, 0.0000°E)
Time: 03:41:04
(UTC+00:00)

ISS - Visible Passes

Search period start: 26 May 2020 00:00
Search period end: 05 June 2020 00:00
Orbit: 417 x 420 km, 51.6° (Epoch: 26 May)

Date Brightness Start Highest point End Pass type
(mag) Time Alt. Az. Time Alt. Az. Time Alt. Az.
26 May -0.2 22:47:54 10° NNW 22:48:01 11° NNW 22:48:01 11° NNW visible
27 May -0.8 22:00:34 10° N 22:01:47 15° N 22:01:47 15° N visible
28 May -0.9 21:13:40 10° N 21:14:44 11° NNE 21:15:35 10° NE visible
29 May -1.2 22:00:56 10° NNW 22:02:20 21° NNW 22:02:20 21° NNW visible
30 May -2.0 21:13:24 10° NNW 21:16:11 24° NE 21:16:11 24° NE visible
31 May -1.4 20:26:02 10° N 20:28:12 16° NNE 20:30:04 11° ENE visible
31 May -1.1 22:01:56 10° NW 22:03:00 19° WNW 22:03:00 19° WNW visible
01 Jun -1.0 19:39:09 10° N 19:40:07 11° NNE 19:41:05 10° NE visible
01 Jun -3.3 21:14:02 10° NW 21:16:55 60° NNW 21:16:55 60° NNW visible
02 Jun -2.9 20:26:19 10° NNW 20:29:30 39° NE 20:30:53 26° E visible
03 Jun -2.0 19:38:44 10° NNW 19:41:32 24° NE 19:44:18 10° E visible
03 Jun -2.2 21:15:20 10° WNW 21:17:50 27° WSW 21:17:50 27° WSW visible
04 Jun -3.4 20:27:11 10° NW 20:30:30 56° SW 20:31:54 30° SSE visible
